QPF
0.00 0.00 0.00 0.00 0.00 0.00 0.00 0.00 0.00 0.00 0.00 0.00 0.00 0.00 0.00 0.00 0.00 0.00 0.00 0.00 0.00 0.00 0.00 0.00 0.00 0.00 0.00 0.00 0.00 0.00 0.00 0.00 0.00 0.00 0.00 0.00 0.00 0.00 0.00 0.00 0.00 0.00 0.00
0.00 0.00 0.00 0.00 0.00 0.00 0.00 0.00 0.00 0.00 0.00 0.00 0.00 0.00 0.00 0.00 0.00 0.00 0.00 0.00 0.00 0.00 0.00 0.00 0.00 0.00 0.00 0.00 0.00 0.00 0.00 0.00 0.00 0.00 0.00 0.00 0.00 0.00 0.00 0.00 0.00 0.00 0.00
0.00 0.00 0.00 0.00 0.00 0.00 0.00 0.00 0.00 0.00 0.00 0.00 0.00 0.00 0.00 0.00 0.00 0.00 0.00 0.00 0.00 0.00 0.00 0.00 0.00 0.00 0.00 0.00 0.00 0.00 0.00 0.00 0.00 0.00 0.00 0.00 0.00 0.00 0.00 0.00 0.00 0.00 0.00
0.00 0.00 0.00 0.00 0.00 0.00 0.00 0.00 0.00 0.00 0.00 0.00 0.00 0.00 0.00 0.00 0.00 0.00 0.00 0.00 0.00 0.00 0.00 0.00 0.00 0.00 0.00 0.00 0.00 0.00 0.00 0.00 0.00 0.00 0.00 0.00 0.00 0.00 0.00 0.00 0.00 0.00 0.00
0.00 0.00 0.00 0.00 0.00 0.00 0.00 0.00 0.00 0.00 0.00 0.00 0.00 0.00 0.00 0.00 0.00 0.00 0.00 0.00 0.00 0.00 0.00 0.00 0.00 0.00 0.00 0.00 0.00 0.00 0.00 0.00 0.00 0.00 0.00 0.00 0.00 0.00 0.00 0.00 0.00 0.00 0.00
0.00 0.00 0.00 0.00 0.00 0.00 0.00 0.00 0.00 0.00 0.00 0.00 0.00 0.00 0.00 0.00 0.00 0.00 0.00 0.00 0.00 0.00 0.00 0.00 0.00 0.00 0.00 0.00 0.00 0.00 0.00 0.00 0.00 0.00 0.00 0.00 0.00 0.00 0.00 0.00 0.00 0.00 0.00
0.00 0.00 0.00 0.00 0.00 0.00 0.00 0.00 0.00 0.00 0.00 0.00 0.00 0.00 0.00 0.00 0.00 0.00 0.00 0.00 0.00 0.00 0.00 0.00 0.00 0.00 0.00 0.00 0.00 0.00 0.00 0.00 0.00 0.00 0.00 0.00 0.00 0.00 0.00 0.00 0.00 0.00 0.00
0.00 0.00 0.00 0.00 0.00 0.00 0.00 0.00 0.00 0.00 0.00 0.00 0.00 0.00 0.00 0.00 0.00 0.00 0.00 0.00 0.00 0.00 0.00 0.00 0.00 0.00 0.00 0.00 0.00 0.00 0.00 0.00 0.00 0.00 0.00 0.00 0.00 0.00 0.00 0.00 0.00 0.00 0.00
0.00 0.00 0.00 0.00 0.00 0.00 0.00 0.00 0.00 0.00 0.00 0.00 0.00 0.00 0.00 0.00 0.00 0.00 0.00 0.00 0.00 0.00 0.00 0.00 0.00 0.00 0.00 0.00 0.00 0.00 0.00 0.00 0.00 0.00 0.00 0.00 0.00 0.00 0.00 0.00 0.00 0.00 0.00
0.00 0.00 0.00 0.00 0.00 0.00 0.00 0.00 0.00 0.00 0.00 0.00 0.00 0.00 0.00 0.00 0.00 0.00 0.00 0.00 0.00 0.00 0.00 0.00 0.00 0.00 0.00 0.00 0.00 0.00 0.00 0.00 0.00 0.00 0.00 0.00 0.00 0.00 0.00 0.00 0.00 0.00 0.00
0.00 0.00 0.00 0.00 0.00 0.00 0.00 0.00 0.00 0.00 0.00 0.00 0.00 0.00 0.00 0.00 0.00 0.00 0.00 0.00 0.00 0.00 0.00 0.00 0.00 0.00 0.00 0.00 0.00 0.00 0.00 0.00 0.00 0.00 0.00 0.00 0.00 0.00 0.00 0.00 0.00 0.00 0.00
0.00 0.00 0.00 0.00 0.00 0.00 0.00 0.00 0.00 0.00 0.00 0.00 0.00 0.00 0.00 0.00 0.00 0.00 0.00 0.00 0.00 0.00 0.00 0.00 0.00 0.00 0.00 0.00 0.00 0.00 0.00 0.00 0.00 0.00 0.00 0.00 0.00 0.00 0.00 0.00 0.00 0.00 0.00
0.00 0.00 0.00 0.00 0.00 0.00 0.00 0.00 0.00 0.00 0.00 0.00 0.00 0.00 0.00 0.00 0.00 0.00 0.00 0.00 0.00 0.00 0.00 0.00 0.00 0.00 0.00 0.00 0.00 0.00 0.00 0.00 0.00 0.00 0.00 0.00 0.00 0.00 0.00 0.00 0.00 0.00 0.00
0.00 0.00 0.00 0.00 0.00 0.00 0.00 0.00 0.00 0.00 0.00 0.00 0.00 0.00 0.00 0.00 0.00 0.00 0.00 0.00 0.00 0.00 0.00 0.00 0.00 0.00 0.00 0.00 0.00 0.00 0.00 0.00 0.00 0.00 0.00 0.00 0.00 0.00 0.00 0.00 0.00 0.00 0.00
0.00 0.00 0.00 0.00 0.00 0.00 0.00 0.00 0.00 0.00 0.00 0.00 0.00 0.00 0.00 0.00 0.00 0.00 0.00 0.00 0.00 0.00 0.00 0.00 0.00 0.00 0.00 0.00 0.00 0.00 0.00 0.00 0.00 0.00 0.00 0.00 0.00 0.00 0.00 0.00 0.00 0.00 0.00
0.00 0.00 0.00 0.00 0.00 0.00 0.00 0.00 0.00 0.00 0.00 0.00 0.00 0.00 0.00 0.00 0.00 0.00 0.00 0.00 0.00 0.00 0.00 0.00 0.00 0.00 0.00 0.00 0.00 0.00 0.00 0.00 0.00 0.00 0.00 0.00 0.00 0.00 0.00 0.00 0.00 0.00 0.00
0.00 0.00 0.00 0.00 0.00 0.00 0.00 0.00 0.00 0.00 0.00 0.00 0.00 0.00 0.00 0.00 0.00 0.00 0.00 0.00 0.00 0.00 0.00 0.00 0.00 0.00 0.00 0.00 0.00 0.00 0.00 0.00 0.00 0.00 0.00 0.00 0.00 0.00 0.00 0.00 0.00 0.00 0.00
0.00 0.00 0.00 0.00 0.00 0.00 0.00 0.00 0.00 0.00 0.00 0.00 0.00 0.00 0.00 0.00 0.00 0.00 0.00 0.00 0.00 0.00 0.00 0.00 0.00 0.00 0.00 0.00 0.00 0.00 0.00 0.00 0.00 0.00 0.00 0.00 0.00 0.00 0.00 0.00 0.00 0.00 0.00
0.00 0.00 0.00 0.00 0.00 0.00 0.00 0.00 0.00 0.00 0.00 0.00 0.00 0.00 0.00 0.00 0.00 0.00 0.00 0.00 0.00 0.00 0.00 0.00 0.00 0.00 0.00 0.00 0.00 0.00 0.00 0.00 0.00 0.00 0.00 0.00 0.00 0.00 0.00 0.00 0.00 0.00 0.00
0.00 0.00 0.00 0.00 0.00 0.00 0.00 0.00 0.00 0.00 0.00 0.00 0.00 0.00 0.00 0.00 0.00 0.00 0.00 0.00 0.00 0.00 0.00 0.00 0.00 0.00 0.00 0.00 0.00 0.00 0.00 0.00 0.00 0.00 0.00 0.00 0.00 0.00 0.00 0.00 0.00 0.00 0.00
0.00 0.00 0.00 0.00 0.00 0.00 0.00 0.00 0.00 0.00 0.00 0.00 0.00 0.00 0.00 0.00 0.00 0.00 0.00 0.00 0.00 0.00 0.00 0.00 0.00 0.00 0.00 0.00 0.00 0.00 0.00 0.00 0.00 0.00 0.00 0.00 0.00 0.00 0.00 0.00 0.00 0.00 0.00
0.00 0.00 0.00 0.00 0.00 0.00 0.00 0.00 0.00 0.00 0.00 0.00 0.00 0.00 0.00 0.00 0.00 0.00 0.00 0.00 0.00 0.00 0.00 0.00 0.00 0.00 0.00 0.00 0.00 0.00 0.00 0.00 0.00 0.00 0.00 0.00 0.00 0.00 0.00 0.00 0.00 0.00 0.00
0.00 0.00 0.00 0.00 0.00 0.00 0.00 0.00 0.00 0.00 0.00 0.00 0.00 0.00 0.00 0.00 0.00 0.00 0.00 0.00 0.00 0.00 0.00 0.00 0.00 0.00 0.00 0.00 0.00 0.00 0.00 0.00 0.00 0.00 0.00 0.00 0.00 0.00 0.00 0.00 0.00 0.00 0.00
0.00 0.00 0.00 0.00 0.00 0.00 0.00 0.00 0.00 0.00 0.00 0.00 0.00 0.00 0.00 0.00 0.00 0.00 0.00 0.00 0.00 0.00 0.00 0.00 0.00 0.00 0.00 0.00 0.00 0.00 0.00 0.00 0.00 0.00 0.00 0.00 0.00 0.00 0.00 0.00 0.00 0.00 0.00
0.00 0.00 0.00 0.00 0.00 0.00 0.00 0.00 0.00 0.00 0.00 0.00 0.00 0.00 0.00 0.00 0.00 0.00 0.00 0.00 0.00 0.00 0.00 0.00 0.00 0.00 0.00 0.00 0.00 0.00 0.00 0.00 0.00 0.00 0.00 0.00 0.00 0.00 0.00 0.00 0.00 0.00 0.00
0.00 0.00 0.00 0.00 0.00 0.00 0.00 0.00 0.00 0.00 0.00 0.00 0.00 0.00 0.00 0.00 0.00 0.00 0.00 0.00 0.00 0.00 0.00 0.00 0.00 0.00 0.00 0.00 0.00 0.00 0.00 0.00 0.00 0.00 0.00 0.00 0.00 0.00 0.00 0.00 0.00 0.00 0.00
MSLP
1020.91 1021.21 1021.61 1021.99 1022.22 1022.42 1022.69 1023.02 1023.32 1023.64 1023.89 1024.12 1024.29 1024.58 1024.78 1024.89 1024.86 1024.94 1025.10 1025.34 1025.52 1025.72 1025.87 1025.97 1026.22 1026.33 1026.48 1026.50 1026.44 1026.32 1026.20 1026.11 1026.11 1025.67 1025.46 1025.40 1025.34 1025.40 1025.19 1025.08 1024.77 1024.36 1023.97
1020.94 1021.43 1021.86 1022.23 1022.52 1022.74 1022.97 1023.26 1023.53 1023.80 1024.02 1024.26 1024.54 1024.83 1025.03 1025.20 1025.28 1025.38 1025.63 1025.98 1026.16 1026.32 1026.40 1026.51 1026.70 1026.92 1027.12 1027.20 1027.17 1027.14 1027.07 1027.04 1026.98 1026.76 1026.31 1026.04 1026.03 1025.86 1025.83 1025.39 1024.85 1024.48 1024.17
1020.67 1021.19 1021.76 1022.26 1022.64 1022.89 1023.17 1023.47 1023.71 1023.96 1024.21 1024.43 1024.70 1025.00 1025.17 1025.32 1025.52 1025.75 1026.03 1026.38 1026.67 1026.82 1026.93 1027.11 1027.33 1027.44 1027.57 1027.65 1027.66 1027.66 1027.59 1027.45 1027.41 1027.28 1026.98 1026.66 1026.33 1025.96 1025.73 1025.60 1025.22 1024.95 1024.43
1020.31 1020.88 1021.44 1021.92 1022.38 1022.74 1023.12 1023.51 1023.93 1024.13 1024.41 1024.67 1024.86 1025.14 1025.38 1025.51 1025.61 1025.88 1026.32 1026.61 1026.83 1027.11 1027.36 1027.61 1027.77 1027.80 1027.80 1027.76 1027.75 1027.83 1027.80 1027.56 1027.31 1027.31 1027.28 1027.08 1026.84 1026.57 1026.16 1025.74 1025.18 1025.06 1024.48
1019.69 1020.27 1020.76 1021.48 1022.11 1022.63 1023.07 1023.39 1023.69 1024.09 1024.39 1024.62 1024.92 1025.22 1025.42 1025.52 1025.57 1025.80 1026.11 1026.53 1026.92 1027.37 1027.64 1027.94 1028.19 1028.28 1028.10 1028.00 1028.01 1027.89 1027.76 1027.78 1027.56 1027.41 1027.32 1027.32 1026.94 1026.61 1026.57 1026.25 1025.78 1025.14 1024.19
1019.03 1019.56 1020.24 1020.97 1021.62 1022.17 1022.69 1023.19 1023.59 1024.00 1024.37 1024.76 1025.17 1025.47 1025.67 1025.71 1025.66 1025.77 1026.11 1026.51 1027.08 1027.58 1027.89 1028.12 1028.51 1028.64 1028.57 1028.31 1028.11 1027.95 1027.89 1027.81 1028.05 1027.90 1027.66 1027.71 1027.32 1027.23 1027.23 1026.80 1026.17 1025.43 1025.07
1018.33 1018.95 1019.57 1020.32 1021.07 1021.75 1022.34 1022.86 1023.29 1023.77 1024.25 1024.70 1025.08 1025.48 1025.74 1025.81 1025.85 1026.12 1026.46 1026.82 1027.06 1027.46 1027.90 1028.07 1028.33 1028.58 1028.66 1028.49 1028.59 1028.08 1028.20 1027.98 1028.07 1028.43 1028.29 1028.41 1027.78 1027.65 1027.68 1027.09 1027.10 1027.04 1026.47
1017.58 1018.38 1019.12 1019.79 1020.43 1021.11 1021.85 1022.48 1023.12 1023.61 1024.08 1024.51 1024.97 1025.28 1025.53 1025.65 1025.95 1026.30 1026.69 1027.18 1027.50 1027.76 1028.00 1028.13 1028.34 1028.64 1028.38 1028.30 1028.58 1028.48 1028.50 1028.30 1028.16 1028.45 1028.74 1028.47 1028.00 1028.02 1027.97 1027.75 1027.94 1027.70 1027.18
1017.02 1017.55 1018.22 1018.97 1019.86 1020.65 1021.39 1021.98 1022.64 1023.24 1023.66 1024.04 1024.45 1024.81 1025.04 1025.16 1025.48 1025.98 1026.40 1027.09 1027.42 1027.63 1027.97 1028.28 1028.32 1028.50 1028.05 1028.05 1028.51 1028.63 1028.61 1028.54 1028.44 1028.75 1028.85 1028.71 1028.40 1028.26 1027.95 1028.34 1028.43 1028.00 1027.10
1016.67 1017.33 1018.03 1018.73 1019.50 1020.18 1020.78 1021.42 1021.98 1022.58 1023.13 1023.62 1024.09 1024.48 1024.92 1025.09 1025.28 1025.89 1026.18 1026.65 1026.92 1027.26 1027.60 1028.10 1028.34 1028.26 1028.18 1028.07 1028.30 1028.52 1028.46 1028.54 1028.97 1029.00 1029.14 1029.21 1029.19 1028.63 1028.58 1028.76 1028.53 1028.38 1028.12
1016.54 1017.16 1017.86 1018.28 1019.02 1019.72 1020.38 1020.95 1021.55 1022.15 1022.73 1023.32 1023.87 1024.44 1024.86 1025.33 1025.48 1025.80 1026.27 1026.64 1026.78 1027.12 1027.44 1027.71 1028.20 1028.34 1028.38 1028.26 1028.53 1028.80 1028.15 1028.28 1029.25 1029.72 1029.59 1029.47 1029.40 1029.34 1029.09 1029.11 1029.01 1028.69 1028.48
1016.64 1017.27 1017.84 1018.37 1018.92 1019.56 1020.42 1021.29 1021.89 1022.35 1022.88 1023.36 1023.77 1024.36 1024.91 1025.29 1025.64 1025.85 1026.35 1026.46 1026.89 1026.91 1027.25 1027.58 1028.16 1028.49 1028.64 1028.59 1028.87 1028.75 1028.73 1029.33 1029.76 1030.13 1029.98 1030.05 1029.87 1029.75 1029.62 1029.51 1029.31 1029.05 1028.99
1017.09 1017.53 1018.18 1018.75 1019.05 1019.69 1020.16 1020.80 1021.51 1022.20 1022.66 1023.20 1023.68 1024.27 1025.03 1025.51 1025.92 1026.16 1026.33 1026.62 1027.11 1027.19 1027.24 1027.52 1028.21 1028.56 1028.81 1029.09 1029.23 1029.29 1029.58 1029.63 1030.14 1030.45 1030.34 1030.45 1030.46 1030.29 1030.04 1029.77 1029.51 1029.40 1029.16
1017.01 1017.65 1018.17 1018.66 1019.27 1019.72 1020.13 1020.54 1021.30 1021.74 1022.18 1022.71 1023.54 1024.38 1024.92 1025.47 1026.01 1026.50 1026.75 1026.75 1026.83 1027.24 1027.38 1028.49 1028.54 1028.79 1029.07 1029.14 1029.55 1029.79 1029.89 1029.94 1030.48 1030.69 1030.44 1030.48 1030.56 1030.39 1030.19 1029.99 1029.76 1029.56 1029.28
1017.03 1017.74 1018.28 1018.96 1019.48 1019.92 1020.54 1020.60 1021.05 1021.26 1021.65 1022.27 1022.88 1023.64 1024.37 1024.96 1025.40 1026.05 1026.45 1026.69 1026.98 1027.10 1028.24 1028.78 1029.18 1029.45 1029.64 1029.69 1029.73 1030.08 1030.17 1030.31 1030.64 1030.55 1030.38 1030.54 1030.48 1030.42 1030.24 1030.00 1029.98 1029.89 1029.66
1017.01 1017.62 1018.19 1018.91 1019.45 1020.09 1020.50 1021.29 1021.28 1021.61 1021.74 1022.37 1022.85 1023.43 1024.14 1024.65 1025.03 1025.38 1025.59 1025.64 1025.69 1026.35 1028.24 1029.12 1029.53 1029.93 1029.96 1029.84 1029.96 1030.10 1030.22 1030.36 1030.35 1030.31 1030.37 1030.54 1030.56 1030.50 1030.41 1030.28 1030.14 1029.85 1029.38
1016.94 1017.45 1018.48 1018.65 1018.73 1020.14 1021.10 1021.49 1021.41 1021.79 1022.13 1022.45 1022.72 1023.14 1023.95 1024.57 1024.67 1025.04 1025.10 1025.27 1025.39 1026.37 1028.26 1029.09 1029.68 1029.97 1029.90 1029.86 1029.99 1030.20 1030.15 1029.93 1029.91 1030.09 1030.29 1030.38 1030.46 1030.56 1030.66 1030.32 1029.87 1029.58 1029.16
1016.92 1017.26 1018.00 1018.93 1019.28 1019.92 1020.87 1021.43 1021.63 1021.91 1022.50 1023.19 1023.27 1023.56 1024.11 1024.55 1024.66 1024.72 1024.89 1025.15 1026.28 1026.96 1028.49 1029.39 1029.78 1029.93 1029.95 1029.93 1029.93 1029.97 1029.80 1029.67 1029.75 1029.92 1030.03 1030.17 1030.44 1030.65 1030.47 1030.06 1029.78 1029.51 1029.07
1017.13 1017.45 1017.93 1018.75 1019.64 1020.13 1020.79 1021.47 1021.98 1022.62 1023.28 1024.03 1024.73 1024.96 1025.84 1025.37 1025.16 1025.14 1025.16 1026.09 1027.40 1028.12 1028.76 1029.33 1029.33 1029.52 1029.64 1029.62 1029.54 1029.53 1029.55 1029.49 1029.42 1029.55 1029.66 1029.99 1030.14 1030.27 1029.99 1029.67 1029.48 1029.19 1028.77
1016.88 1017.63 1018.30 1019.25 1020.00 1020.49 1020.95 1021.55 1022.29 1023.06 1023.76 1024.43 1025.21 1025.77 1026.45 1026.73 1026.68 1026.76 1026.59 1027.05 1027.79 1028.20 1028.43 1028.80 1028.70 1028.85 1028.90 1028.95 1028.94 1028.94 1029.02 1029.08 1029.08 1029.06 1029.19 1029.32 1029.29 1029.32 1029.27 1029.17 1028.97 1028.77 1028.19
1017.39 1018.22 1018.65 1019.62 1020.43 1020.92 1021.43 1021.98 1022.63 1023.51 1024.32 1024.94 1025.62 1025.95 1026.30 1026.92 1027.16 1027.43 1027.38 1027.48 1027.75 1027.82 1027.77 1027.99 1028.05 1028.09 1028.07 1028.07 1028.13 1028.21 1028.34 1028.26 1028.06 1028.05 1028.22 1028.30 1028.32 1028.66 1028.44 1028.33 1028.15 1028.05 1027.58
1017.72 1018.45 1019.41 1020.17 1020.67 1021.27 1022.03 1022.58 1023.23 1023.93 1024.62 1025.33 1026.07 1026.17 1025.90 1026.44 1026.79 1027.07 1027.10 1027.09 1027.10 1027.05 1026.90 1027.15 1027.25 1027.10 1026.95 1026.89 1027.02 1027.09 1027.19 1027.10 1026.87 1026.84 1027.04 1027.15 1027.26 1027.40 1027.56 1027.58 1027.44 1027.16 1026.78
1018.38 1019.05 1019.96 1020.64 1021.25 1021.94 1022.62 1023.04 1023.56 1024.26 1024.80 1025.33 1025.87 1026.25 1026.45 1026.52 1026.54 1026.57 1026.54 1026.34 1026.38 1026.26 1026.15 1026.45 1026.32 1025.92 1025.63 1025.55 1025.60 1025.66 1025.72 1025.39 1025.19 1025.41 1025.76 1026.01 1026.24 1026.42 1026.52 1026.51 1026.32 1026.12 1025.83
1018.70 1019.34 1020.00 1020.64 1021.36 1022.11 1022.72 1023.17 1023.64 1024.24 1024.75 1025.21 1025.62 1025.87 1026.01 1026.04 1025.92 1025.73 1025.49 1025.27 1025.28 1025.12 1025.01 1025.06 1024.98 1024.71 1024.35 1024.33 1024.28 1024.27 1024.22 1024.00 1024.04 1024.23 1024.57 1024.81 1025.02 1025.04 1025.12 1025.16 1025.00 1024.81 1024.62
1019.10 1019.73 1020.19 1020.69 1021.36 1021.87 1022.45 1022.90 1023.41 1023.92 1024.38 1024.87 1025.14 1025.38 1025.17 1025.07 1024.93 1024.67 1024.43 1024.32 1024.27 1024.11 1023.70 1023.60 1023.52 1023.25 1023.18 1023.03 1022.90 1022.88 1022.78 1022.61 1022.69 1022.96 1023.38 1023.70 1023.73 1023.70 1023.74 1023.77 1023.60 1023.45 1023.29
1019.35 1019.90 1020.38 1020.86 1021.33 1021.85 1022.31 1022.73 1022.97 1023.34 1023.74 1024.07 1024.21 1024.10 1024.09 1024.05 1023.83 1023.59 1023.36 1023.25 1023.11 1022.79 1022.52 1022.26 1022.06 1021.99 1021.84 1021.68 1021.58 1021.56 1021.50 1021.36 1021.47 1021.60 1021.90 1022.33 1022.40 1022.32 1022.29 1022.27 1022.14 1022.01 1021.71
Thickness
5551 5549 5545 5541 5538 5536 5534 5530 5526 5521 5517 5513 5510 5506 5502 5498 5496 5492 5488 5482 5478 5473 5469 5465 5459 5455 5450 5446 5443 5440 5437 5435 5432 5431 5429 5427 5424 5422 5419 5418 5417 5418 5417
5536 5532 5529 5525 5522 5520 5517 5513 5509 5505 5501 5496 5492 5487 5483 5479 5476 5473 5468 5462 5457 5453 5449 5444 5439 5434 5428 5424 5420 5417 5414 5411 5409 5408 5407 5406 5403 5401 5400 5401 5401 5401 5401
5524 5519 5514 5510 5506 5503 5500 5496 5492 5488 5483 5479 5475 5471 5467 5463 5459 5455 5449 5442 5437 5432 5428 5423 5417 5412 5407 5403 5399 5396 5393 5392 5389 5387 5386 5384 5384 5384 5384 5383 5384 5384 5382
5514 5509 5504 5498 5493 5489 5485 5481 5475 5471 5466 5462 5458 5453 5449 5446 5442 5437 5430 5424 5419 5413 5407 5401 5396 5392 5388 5384 5380 5377 5374 5373 5372 5369 5367 5365 5363 5363 5364 5367 5370 5367 5369
5507 5501 5495 5487 5480 5475 5469 5465 5461 5456 5451 5447 5442 5437 5433 5429 5426 5421 5414 5407 5402 5394 5387 5380 5375 5371 5368 5364 5360 5358 5356 5354 5353 5351 5350 5348 5348 5347 5345 5346 5348 5351 5355
5499 5493 5484 5478 5471 5465 5459 5452 5447 5441 5436 5431 5425 5419 5414 5410 5406 5401 5395 5389 5382 5374 5368 5362 5355 5351 5348 5346 5343 5341 5338 5336 5333 5330 5329 5327 5327 5325 5322 5323 5326 5331 5330
5491 5484 5478 5471 5464 5456 5448 5442 5435 5428 5422 5415 5409 5402 5397 5392 5388 5382 5375 5369 5365 5358 5352 5347 5341 5336 5334 5331 5325 5325 5321 5319 5315 5309 5308 5304 5306 5304 5301 5301 5298 5296 5297
5483 5476 5468 5461 5455 5448 5439 5431 5421 5414 5407 5401 5394 5388 5382 5377 5371 5364 5358 5351 5345 5340 5335 5330 5325 5321 5321 5317 5309 5307 5303 5300 5298 5293 5288 5286 5286 5282 5278 5274 5271 5270 5269
5472 5466 5459 5451 5443 5433 5426 5419 5410 5402 5395 5388 5382 5375 5370 5365 5359 5350 5342 5334 5329 5325 5318 5312 5309 5305 5306 5302 5294 5289 5284 5281 5278 5272 5268 5265 5263 5259 5257 5250 5242 5242 5245
5458 5451 5443 5435 5427 5420 5413 5406 5399 5390 5382 5374 5367 5360 5352 5347 5343 5333 5326 5322 5317 5311 5306 5298 5291 5289 5286 5283 5278 5272 5269 5264 5257 5252 5247 5242 5237 5236 5231 5223 5220 5214 5211
5443 5437 5429 5423 5413 5405 5397 5390 5382 5374 5365 5357 5349 5342 5336 5328 5324 5318 5309 5304 5300 5294 5288 5283 5274 5269 5266 5264 5258 5252 5253 5249 5238 5230 5225 5220 5213 5208 5204 5197 5191 5189 5185
5426 5419 5411 5403 5396 5387 5376 5366 5358 5351 5342 5336 5330 5323 5317 5311 5305 5301 5291 5288 5281 5278 5271 5266 5257 5251 5246 5243 5237 5234 5230 5224 5217 5209 5206 5199 5193 5186 5180 5174 5168 5163 5155
5406 5398 5391 5384 5378 5368 5360 5351 5341 5331 5323 5316 5310 5303 5294 5288 5283 5279 5273 5268 5261 5257 5253 5246 5238 5233 5228 5221 5217 5211 5207 5204 5196 5189 5185 5179 5172 5165 5158 5152 5147 5142 5133
5389 5381 5374 5367 5357 5350 5343 5335 5324 5315 5307 5301 5292 5282 5275 5268 5263 5257 5254 5250 5246 5239 5233 5223 5219 5215 5208 5203 5197 5191 5188 5184 5176 5170 5167 5160 5151 5145 5137 5131 5127 5120 5114
5370 5362 5355 5344 5337 5328 5319 5313 5304 5298 5292 5284 5278 5269 5260 5255 5249 5243 5237 5232 5227 5223 5210 5205 5199 5194 5189 5185 5181 5174 5169 5163 5157 5152 5148 5139 5133 5126 5117 5109 5103 5097 5089
5352 5344 5336 5325 5318 5308 5301 5289 5287 5280 5276 5267 5260 5253 5245 5239 5234 5229 5225 5221 5217 5209 5192 5184 5182 5177 5173 5170 5164 5157 5150 5144 5140 5135 5127 5119 5113 5105 5097 5087 5081 5077 5073
5333 5325 5314 5310 5305 5289 5278 5272 5269 5264 5258 5252 5246 5238 5231 5224 5219 5214 5211 5207 5203 5193 5178 5174 5168 5162 5156 5152 5146 5139 5132 5128 5123 5115 5108 5101 5093 5084 5074 5069 5066 5062 5059
5311 5307 5300 5289 5284 5275 5265 5258 5254 5248 5240 5231 5228 5222 5215 5208 5204 5201 5197 5193 5179 5176 5162 5154 5147 5142 5138 5134 5129 5123 5117 5111 5104 5097 5090 5081 5070 5064 5057 5053 5050 5046 5045
5290 5286 5281 5272 5263 5257 5249 5242 5236 5229 5221 5212 5202 5199 5192 5190 5187 5184 5181 5171 5163 5155 5148 5141 5136 5129 5123 5118 5114 5108 5101 5094 5088 5079 5070 5061 5053 5046 5043 5040 5037 5035 5034
5273 5265 5258 5249 5241 5235 5231 5225 5217 5209 5202 5195 5185 5180 5173 5168 5162 5158 5155 5151 5144 5140 5135 5129 5124 5117 5110 5105 5100 5094 5087 5078 5070 5063 5056 5049 5043 5038 5035 5030 5026 5024 5022
5248 5239 5234 5226 5220 5215 5210 5205 5199 5190 5181 5174 5169 5165 5164 5155 5150 5144 5141 5136 5132 5128 5124 5117 5111 5104 5098 5093 5087 5080 5071 5065 5058 5052 5045 5040 5035 5028 5025 5023 5019 5013 5012
5227 5219 5211 5206 5201 5196 5189 5183 5176 5170 5163 5158 5153 5151 5156 5145 5138 5132 5128 5125 5122 5118 5113 5107 5100 5094 5088 5082 5076 5068 5060 5053 5047 5044 5039 5034 5029 5024 5018 5013 5009 5005 5002
5206 5199 5192 5186 5181 5174 5168 5164 5159 5153 5149 5146 5141 5136 5130 5128 5125 5120 5115 5112 5109 5105 5100 5095 5089 5083 5078 5072 5064 5057 5051 5047 5045 5041 5035 5029 5023 5017 5011 5007 5002 4994 4992
5188 5184 5179 5171 5164 5157 5154 5149 5145 5142 5137 5132 5126 5122 5118 5114 5111 5108 5106 5103 5099 5094 5088 5083 5078 5073 5067 5061 5054 5049 5046 5044 5040 5035 5030 5024 5019 5013 5006 5000 4995 4990 4985
5169 5163 5160 5156 5151 5148 5143 5139 5134 5128 5123 5118 5113 5108 5105 5102 5099 5097 5094 5091 5087 5082 5078 5073 5068 5063 5057 5053 5048 5045 5042 5039 5035 5030 5025 5019 5013 5007 5001 4994 4989 4984 4977
5151 5147 5142 5139 5136 5132 5128 5124 5121 5117 5112 5106 5102 5099 5096 5092 5089 5086 5083 5079 5075 5073 5069 5063 5057 5052 5049 5046 5044 5041 5038 5035 5030 5025 5020 5015 5008 5001 4995 4988 4982 4976 4970